timestamp,wind_dir_avg,wind_spd_avg,wind_spd_max_dir,wind_spd_gust,battery_voltage,lat,long
2022-02-06 00:04:00+00:00,332.0,2.19,329.0,2.41,12.17,47.59359,-54.27349
2022-02-06 00:14:01+00:00,276.0,2.24,279.0,2.65,12.17,47.59359,-54.27349
2022-02-06 00:24:01+00:00,291.0,3.97,292.0,4.22,12.17,47.59359,-54.27349
2022-02-06 00:34:01+00:00,306.0,4.37,310.0,4.88,12.17,47.59359,-54.27349
2022-02-06 00:44:01+00:00,315.0,4.46,315.0,4.87,12.17,47.59359,-54.27349
2022-02-06 00:54:01+00:00,333.0,4.14,337.0,4.54,12.17,47.59359,-54.27349
2022-02-06 01:04:01+00:00,332.0,4.73,337.0,5.36,12.17,47.59359,-54.27349
2022-02-06 01:14:01+00:00,349.0,5.59,349.0,5.98,12.17,47.59359,-54.27349
2022-02-06 01:24:01+00:00,353.0,5.74,3.0,6.13,12.17,47.59359,-54.27349
2022-02-06 01:34:01+00:00,358.0,5.51,356.0,5.88,12.17,47.59359,-54.27349
2022-02-06 01:44:01+00:00,11.0,9.02,9.0,9.94,12.17,47.59359,-54.27349
2022-02-06 01:54:01+00:00,9.0,9.3,12.0,10.82,12.17,47.59359,-54.27349
2022-02-06 02:04:01+00:00,350.0,11.06,348.0,12.04,12.17,47.59359,-54.27349
2022-02-06 02:14:00+00:00,355.0,11.32,357.0,12.65,12.17,47.59359,-54.27349
2022-02-06 02:24:00+00:00,355.0,10.2,355.0,11.25,12.17,47.59359,-54.27349
2022-02-06 02:34:00+00:00,0.0,9.36,1.0,10.04,12.17,47.59359,-54.27349
2022-02-06 02:44:00+00:00,3.0,9.26,5.0,10.88,12.17,47.59359,-54.27349
2022-02-06 02:54:00+00:00,0.0,9.55,3.0,10.88,12.17,47.59359,-54.27349
2022-02-06 03:04:00+00:00,2.0,8.05,0.0,9.2,12.17,47.59359,-54.27349
2022-02-06 03:14:00+00:00,2.0,8.82,358.0,10.01,12.09,47.59359,-54.27349
2022-02-06 03:24:00+00:00,354.0,9.43,346.0,11.45,12.09,47.59359,-54.27349
2022-02-06 03:34:00+00:00,349.0,8.62,344.0,9.41,12.09,47.59359,-54.27349
2022-02-06 03:44:00+00:00,353.0,7.79,359.0,9.74,12.09,47.59359,-54.27349
2022-02-06 03:54:00+00:00,354.0,8.76,339.0,10.3,12.09,47.59359,-54.27349
2022-02-06 04:04:00+00:00,349.0,9.1,352.0,10.14,12.09,47.59359,-54.27349
2022-02-06 04:14:01+00:00,337.0,11.23,332.0,12.72,12.09,47.59359,-54.27349
2022-02-06 04:24:01+00:00,338.0,11.21,345.0,13.65,12.09,47.59359,-54.27349
2022-02-06 04:34:01+00:00,340.0,13.76,338.0,16.7,12.09,47.59359,-54.27349
2022-02-06 04:44:01+00:00,336.0,11.67,321.0,14.53,12.09,47.59359,-54.27349
2022-02-06 04:54:01+00:00,344.0,14.19,344.0,16.83,12.09,47.59359,-54.27349
2022-02-06 05:04:01+00:00,333.0,12.61,324.0,15.51,12.09,47.59359,-54.27349
2022-02-06 05:14:00+00:00,346.0,11.38,346.0,13.36,12.09,47.59359,-54.27349
2022-02-06 05:24:00+00:00,336.0,13.58,321.0,17.54,12.09,47.59359,-54.27349
2022-02-06 05:34:00+00:00,341.0,14.17,338.0,16.69,12.09,47.59359,-54.27349
2022-02-06 05:44:00+00:00,337.0,14.35,321.0,17.31,12.09,47.59359,-54.27349
2022-02-06 05:54:00+00:00,318.0,14.91,314.0,18.24,12.09,47.59359,-54.27349
2022-02-06 06:04:00+00:00,333.0,14.53,327.0,18.39,12.09,47.59359,-54.27349
2022-02-06 07:14:00+00:00,330.0,16.61,322.0,22.6,12.01,47.59359,-54.27349
2022-02-06 07:24:00+00:00,331.0,16.31,337.0,18.72,12.01,47.59359,-54.27349
2022-02-06 07:34:00+00:00,326.0,14.91,307.0,18.26,12.01,47.59359,-54.27349
2022-02-06 07:44:00+00:00,324.0,13.06,327.0,15.24,12.01,47.59359,-54.27349
2022-02-06 07:54:00+00:00,321.0,11.25,315.0,13.16,12.01,47.59359,-54.27349
2022-02-06 08:04:00+00:00,325.0,14.04,324.0,17.23,12.01,47.59359,-54.27349
2022-02-06 08:14:00+00:00,322.0,14.47,302.0,20.12,12.09,47.59359,-54.27349
2022-02-06 08:24:00+00:00,312.0,10.84,313.0,13.01,12.09,47.59359,-54.27349
2022-02-06 08:34:00+00:00,305.0,11.53,288.0,17.46,12.09,47.59359,-54.27349
2022-02-06 08:44:00+00:00,314.0,12.08,319.0,14.77,12.09,47.59359,-54.27349
2022-02-06 08:54:00+00:00,319.0,12.54,322.0,15.19,12.09,47.59359,-54.27349
2022-02-06 09:04:00+00:00,317.0,11.57,320.0,15.03,12.09,47.59359,-54.27349
2022-02-06 09:14:01+00:00,301.0,10.32,299.0,12.21,12.01,47.59359,-54.27349
2022-02-06 09:24:01+00:00,312.0,10.55,302.0,14.85,12.01,47.59359,-54.27349
2022-02-06 09:34:01+00:00,308.0,11.02,313.0,13.33,12.01,47.59359,-54.27349
2022-02-06 09:44:01+00:00,301.0,9.69,303.0,11.77,12.01,47.59359,-54.27349
2022-02-06 09:54:01+00:00,299.0,8.89,296.0,11.31,12.01,47.59359,-54.27349
2022-02-06 10:04:01+00:00,306.0,11.27,315.0,13.51,12.01,47.59359,-54.27349
2022-02-06 10:14:00+00:00,299.0,10.43,308.0,12.47,12.01,47.59359,-54.27349
2022-02-06 10:24:00+00:00,310.0,11.16,310.0,14.03,12.01,47.59359,-54.27349
2022-02-06 10:34:00+00:00,316.0,11.18,318.0,14.61,12.01,47.59359,-54.27349
2022-02-06 10:44:00+00:00,319.0,11.23,314.0,13.51,12.01,47.59359,-54.27349
2022-02-06 10:54:00+00:00,310.0,11.37,313.0,13.6,12.01,47.59359,-54.27349
2022-02-06 11:04:00+00:00,302.0,10.57,298.0,11.87,12.01,47.59359,-54.27349
2022-02-06 11:14:01+00:00,309.0,10.66,305.0,17.16,12.01,47.59359,-54.27349
2022-02-06 11:24:01+00:00,316.0,11.41,311.0,15.1,12.01,47.59359,-54.27349
2022-02-06 11:34:01+00:00,319.0,13.25,302.0,18.44,12.01,47.59359,-54.27349
2022-02-06 11:44:01+00:00,311.0,12.81,297.0,19.11,12.01,47.59359,-54.27349
2022-02-06 11:54:01+00:00,316.0,11.8,308.0,17.01,12.01,47.59359,-54.27349
2022-02-06 12:04:01+00:00,322.0,13.67,325.0,16.21,12.01,47.59359,-54.27349
2022-02-06 12:14:00+00:00,320.0,12.78,323.0,14.3,13.92,47.59359,-54.27349
2022-02-06 12:24:00+00:00,313.0,11.36,317.0,13.59,13.92,47.59359,-54.27349
2022-02-06 12:34:00+00:00,316.0,11.08,309.0,14.2,13.92,47.59359,-54.27349
2022-02-06 12:44:00+00:00,314.0,12.03,313.0,13.71,13.92,47.59359,-54.27349
2022-02-06 12:54:00+00:00,318.0,12.14,304.0,18.61,13.92,47.59359,-54.27349
2022-02-06 13:04:00+00:00,310.0,11.53,304.0,12.87,13.92,47.59359,-54.27349
2022-02-06 13:14:00+00:00,317.0,12.86,316.0,14.46,13.92,47.59359,-54.27349
2022-02-06 13:24:00+00:00,318.0,12.54,319.0,15.13,13.92,47.59359,-54.27349
2022-02-06 13:34:00+00:00,313.0,12.25,316.0,13.73,13.92,47.59359,-54.27349
2022-02-06 13:44:00+00:00,331.0,12.79,324.0,16.37,13.92,47.59359,-54.27349
2022-02-06 13:54:00+00:00,308.0,11.13,312.0,12.6,13.92,47.59359,-54.27349
2022-02-06 14:04:00+00:00,324.0,13.55,325.0,15.18,13.92,47.59359,-54.27349
2022-02-06 14:14:01+00:00,323.0,13.45,323.0,16.3,14.32,47.59359,-54.27349
2022-02-06 14:24:01+00:00,320.0,11.98,317.0,14.79,14.32,47.59359,-54.27349
2022-02-06 14:34:01+00:00,321.0,13.31,322.0,16.21,14.32,47.59359,-54.27349
2022-02-06 14:44:01+00:00,319.0,13.37,318.0,15.39,14.32,47.59359,-54.27349
2022-02-06 14:54:01+00:00,313.0,11.76,311.0,13.15,14.32,47.59359,-54.27349
2022-02-06 15:04:01+00:00,314.0,10.62,314.0,12.53,14.32,47.59359,-54.27349
2022-02-06 15:14:00+00:00,318.0,10.47,314.0,13.95,13.6,47.59359,-54.27349
2022-02-06 15:24:00+00:00,316.0,11.97,306.0,14.48,13.6,47.59359,-54.27349
2022-02-06 15:34:00+00:00,313.0,11.74,306.0,16.32,13.6,47.59359,-54.27349
2022-02-06 15:44:00+00:00,324.0,12.83,327.0,16.12,13.6,47.59359,-54.27349
2022-02-06 15:54:00+00:00,323.0,11.77,316.0,14.01,13.6,47.59359,-54.27349
2022-02-06 16:04:00+00:00,320.0,13.18,317.0,15.02,13.6,47.59359,-54.27349
2022-02-06 16:14:00+00:00,317.0,12.82,321.0,15.12,14.32,47.59359,-54.27349
2022-02-06 16:24:00+00:00,317.0,12.36,322.0,14.51,14.32,47.59359,-54.27349
2022-02-06 16:34:00+00:00,317.0,11.93,323.0,13.59,14.32,47.59359,-54.27349
2022-02-06 16:44:00+00:00,322.0,13.3,321.0,14.82,14.32,47.59359,-54.27349
2022-02-06 16:54:00+00:00,333.0,11.41,343.0,13.94,14.32,47.59359,-54.27349
2022-02-06 17:04:00+00:00,320.0,13.4,324.0,15.14,14.32,47.59359,-54.27349
2022-02-06 17:14:00+00:00,324.0,10.79,307.0,12.73,13.68,47.59359,-54.27349
2022-02-06 17:24:00+00:00,321.0,12.95,318.0,14.74,13.68,47.59359,-54.27349
2022-02-06 17:34:00+00:00,315.0,12.12,315.0,13.71,13.68,47.59359,-54.27349
2022-02-06 17:44:00+00:00,352.0,10.86,344.0,12.57,13.68,47.59359,-54.27349
2022-02-06 17:54:00+00:00,319.0,10.43,310.0,12.78,13.68,47.59359,-54.27349
2022-02-06 18:04:00+00:00,311.0,11.66,316.0,13.43,13.68,47.59359,-54.27349
2022-02-06 18:14:00+00:00,348.0,8.93,336.0,11.45,13.68,47.59359,-54.27349
2022-02-06 18:24:00+00:00,315.0,10.51,313.0,13.75,13.68,47.59359,-54.27349
2022-02-06 18:34:00+00:00,317.0,12.72,314.0,14.42,13.68,47.59359,-54.27349
2022-02-06 18:44:00+00:00,336.0,11.73,338.0,13.88,13.68,47.59359,-54.27349
2022-02-06 18:54:00+00:00,341.0,9.86,319.0,12.81,13.68,47.59359,-54.27349
2022-02-06 19:04:00+00:00,7.0,7.41,12.0,9.23,13.68,47.59359,-54.27349
2022-02-06 19:14:00+00:00,308.0,10.35,308.0,12.21,14.4,47.59359,-54.27349
2022-02-06 19:24:00+00:00,306.0,11.34,315.0,13.35,14.4,47.59359,-54.27349
2022-02-06 19:34:00+00:00,308.0,11.75,310.0,12.86,14.4,47.59359,-54.27349
2022-02-06 19:44:00+00:00,321.0,10.07,310.0,12.77,14.4,47.59359,-54.27349
2022-02-06 19:54:00+00:00,320.0,8.17,306.0,11.29,14.4,47.59359,-54.27349
2022-02-06 20:04:00+00:00,314.0,9.51,310.0,12.11,14.4,47.59359,-54.27349
2022-02-06 20:14:01+00:00,305.0,10.36,309.0,12.4,13.53,47.59359,-54.27349
2022-02-06 20:24:01+00:00,324.0,6.88,311.0,9.38,13.53,47.59359,-54.27349
2022-02-06 20:34:01+00:00,329.0,5.37,300.0,10.39,13.53,47.59359,-54.27349
2022-02-06 20:44:01+00:00,313.0,6.67,297.0,10.33,13.53,47.59359,-54.27349
2022-02-06 20:54:01+00:00,317.0,6.51,301.0,7.77,13.53,47.59359,-54.27349
2022-02-06 21:04:01+00:00,300.0,8.76,293.0,10.96,13.53,47.59359,-54.27349
2022-02-06 22:14:01+00:00,288.0,8.46,284.0,10.31,12.49,47.59359,-54.27349
2022-02-06 22:24:01+00:00,290.0,8.25,293.0,11.1,12.49,47.59359,-54.27349
2022-02-06 22:34:01+00:00,291.0,7.78,286.0,10.96,12.49,47.59359,-54.27349
2022-02-06 22:44:01+00:00,286.0,8.38,289.0,10.48,12.49,47.59359,-54.27349
2022-02-06 22:54:01+00:00,289.0,8.29,286.0,10.93,12.49,47.59359,-54.27349
2022-02-06 23:04:01+00:00,280.0,9.2,285.0,10.83,12.49,47.59359,-54.27349
2022-02-06 23:14:00+00:00,299.0,5.66,288.0,9.67,12.41,47.59359,-54.27349
2022-02-06 23:24:00+00:00,291.0,6.05,280.0,9.88,12.41,47.59359,-54.27349
2022-02-06 23:34:00+00:00,295.0,6.14,283.0,10.07,12.41,47.59359,-54.27349
2022-02-06 23:44:00+00:00,285.0,8.7,280.0,10.8,12.41,47.59359,-54.27349
2022-02-06 23:54:00+00:00,278.0,8.26,279.0,10.05,12.41,47.59359,-54.27349
